Year,Month,Day,Hour,Minute,Value (Times are PST for temperature in C)
2009,06,02,00,00,18.10
2009,06,02,00,01,18.00
2009,06,02,00,02,18.00
2009,06,02,00,03,17.90
2009,06,02,00,04,17.90
2009,06,02,00,05,17.90
2009,06,02,00,06,17.90
2009,06,02,00,07,17.90
2009,06,02,00,08,17.90
2009,06,02,00,09,17.90
2009,06,02,00,10,17.90
2009,06,02,00,11,17.90
2009,06,02,00,12,17.90
2009,06,02,00,13,17.90
2009,06,02,00,14,17.90
2009,06,02,00,15,17.90
2009,06,02,00,16,17.90
2009,06,02,00,17,17.80
2009,06,02,00,18,17.70
2009,06,02,00,19,17.60
2009,06,02,00,20,17.50
2009,06,02,00,21,17.50
2009,06,02,00,22,17.40
2009,06,02,00,23,17.30
2009,06,02,00,24,17.20
2009,06,02,00,25,17.20
2009,06,02,00,26,17.20
2009,06,02,00,27,17.10
2009,06,02,00,28,17.10
2009,06,02,00,29,17.00
2009,06,02,00,30,16.90
2009,06,02,00,31,16.90
2009,06,02,00,32,16.90
2009,06,02,00,33,16.80
2009,06,02,00,34,16.80
2009,06,02,00,35,16.80
2009,06,02,00,36,16.70
2009,06,02,00,37,16.70
2009,06,02,00,38,16.70
2009,06,02,00,39,16.70
2009,06,02,00,40,16.70
2009,06,02,00,41,16.70
2009,06,02,00,42,16.60
2009,06,02,00,43,16.60
2009,06,02,00,44,16.60
2009,06,02,00,45,16.70
2009,06,02,00,46,16.70
2009,06,02,00,47,16.70
2009,06,02,00,48,16.70
2009,06,02,00,49,16.70
2009,06,02,00,50,16.70
2009,06,02,00,51,16.70
2009,06,02,00,52,16.70
2009,06,02,00,53,16.70
2009,06,02,00,54,16.70
2009,06,02,00,55,16.70
2009,06,02,00,56,16.80
2009,06,02,00,57,16.80
2009,06,02,00,58,16.80
2009,06,02,00,59,16.80
2009,06,02,01,00,16.80
2009,06,02,01,01,16.80
2009,06,02,01,02,16.80
2009,06,02,01,03,16.90
2009,06,02,01,04,16.90
2009,06,02,01,05,16.90
2009,06,02,01,06,16.80
2009,06,02,01,07,16.80
2009,06,02,01,08,16.80
2009,06,02,01,09,16.70
2009,06,02,01,10,16.70
2009,06,02,01,11,16.70
2009,06,02,01,12,16.60
2009,06,02,01,13,16.60
2009,06,02,01,14,16.60
2009,06,02,01,15,16.60
2009,06,02,01,16,16.60
2009,06,02,01,17,16.50
2009,06,02,01,18,16.50
2009,06,02,01,19,16.50
2009,06,02,01,20,16.40
2009,06,02,01,21,16.40
2009,06,02,01,22,16.40
2009,06,02,01,23,16.40
2009,06,02,01,24,16.40
2009,06,02,01,25,16.40
2009,06,02,01,26,16.30
2009,06,02,01,27,16.30
2009,06,02,01,28,16.30
2009,06,02,01,29,16.30
2009,06,02,01,30,16.30
2009,06,02,01,31,16.30
2009,06,02,01,32,16.30
2009,06,02,01,33,16.30
2009,06,02,01,34,16.30
2009,06,02,01,35,16.20
2009,06,02,01,36,16.20
2009,06,02,01,37,16.20
2009,06,02,01,38,16.20
2009,06,02,01,39,16.20
2009,06,02,01,40,16.30
2009,06,02,01,41,16.30
2009,06,02,01,42,16.30
2009,06,02,01,43,16.30
2009,06,02,01,44,16.40
2009,06,02,01,45,16.40
2009,06,02,01,46,16.40
2009,06,02,01,47,16.40
2009,06,02,01,48,16.40
2009,06,02,01,49,16.40
2009,06,02,01,50,16.50
2009,06,02,01,51,16.50
2009,06,02,01,52,16.50
2009,06,02,01,53,16.60
2009,06,02,01,54,16.60
2009,06,02,01,55,16.60
2009,06,02,01,56,16.60
2009,06,02,01,57,16.60
2009,06,02,01,58,16.60
2009,06,02,01,59,16.60
2009,06,02,02,00,16.70
2009,06,02,02,01,16.70
2009,06,02,02,02,16.70
2009,06,02,02,03,16.70
2009,06,02,02,04,16.70
2009,06,02,02,05,16.70
2009,06,02,02,06,16.80
2009,06,02,02,07,16.80
2009,06,02,02,08,16.80
2009,06,02,02,09,16.80
2009,06,02,02,10,16.80
2009,06,02,02,11,16.80
2009,06,02,02,12,16.80
2009,06,02,02,13,16.80
2009,06,02,02,14,16.80
2009,06,02,02,15,16.80
2009,06,02,02,16,16.80
2009,06,02,02,17,16.80
2009,06,02,02,18,16.80
2009,06,02,02,19,16.80
2009,06,02,02,20,16.80
2009,06,02,02,21,16.90
2009,06,02,02,22,16.90
2009,06,02,02,23,16.90
2009,06,02,02,24,16.90
2009,06,02,02,25,17.00
2009,06,02,02,26,17.00
2009,06,02,02,27,17.00
2009,06,02,02,28,17.00
2009,06,02,02,29,17.10
2009,06,02,02,30,17.10
2009,06,02,02,31,17.10
2009,06,02,02,32,17.10
2009,06,02,02,33,17.00
2009,06,02,02,34,17.00
2009,06,02,02,35,17.00
2009,06,02,02,36,17.00
2009,06,02,02,37,17.00
2009,06,02,02,38,17.10
2009,06,02,02,39,17.10
2009,06,02,02,40,17.10
2009,06,02,02,41,17.10
2009,06,02,02,42,17.20
2009,06,02,02,43,17.20
2009,06,02,02,44,17.20
2009,06,02,02,45,17.20
2009,06,02,02,46,17.20
2009,06,02,02,47,17.20
2009,06,02,02,48,17.20
2009,06,02,02,49,17.10
2009,06,02,02,50,17.10
2009,06,02,02,51,17.00
2009,06,02,02,52,17.00
2009,06,02,02,53,16.90
2009,06,02,02,54,16.90
2009,06,02,02,55,16.80
2009,06,02,02,56,16.80
2009,06,02,02,57,16.70
2009,06,02,02,58,16.50
2009,06,02,02,59,16.30
2009,06,02,03,00,16.10
2009,06,02,03,01,15.90
2009,06,02,03,02,15.80
2009,06,02,03,03,15.60
2009,06,02,03,04,15.40
2009,06,02,03,05,15.30
2009,06,02,03,06,15.20
2009,06,02,03,07,15.00
2009,06,02,03,08,15.00
2009,06,02,03,09,15.00
2009,06,02,03,10,15.10
2009,06,02,03,11,15.20
2009,06,02,03,12,15.20
2009,06,02,03,13,15.30
2009,06,02,03,14,15.30
2009,06,02,03,15,15.30
2009,06,02,03,16,15.40
2009,06,02,03,17,15.50
2009,06,02,03,18,15.60
2009,06,02,03,19,15.70
2009,06,02,03,20,15.80
2009,06,02,03,21,15.80
2009,06,02,03,22,15.90
2009,06,02,03,23,15.90
2009,06,02,03,24,15.90
2009,06,02,03,25,16.00
2009,06,02,03,26,16.00
2009,06,02,03,27,16.10
2009,06,02,03,28,16.10
2009,06,02,03,29,16.10
2009,06,02,03,30,16.10
2009,06,02,03,31,16.20
2009,06,02,03,32,16.20
2009,06,02,03,33,16.30
2009,06,02,03,34,16.30
2009,06,02,03,35,16.40
2009,06,02,03,36,16.50
2009,06,02,03,37,16.60
2009,06,02,03,38,16.70
2009,06,02,03,39,16.80
2009,06,02,03,40,16.90
2009,06,02,03,41,17.00
2009,06,02,03,42,17.10
2009,06,02,03,43,17.10
2009,06,02,03,44,17.10
2009,06,02,03,45,17.00
2009,06,02,03,46,16.80
2009,06,02,03,47,16.50
2009,06,02,03,48,16.20
2009,06,02,03,49,15.80
2009,06,02,03,50,15.40
2009,06,02,03,51,15.00
2009,06,02,03,52,14.80
2009,06,02,03,53,14.50
2009,06,02,03,54,14.30
2009,06,02,03,55,14.00
2009,06,02,03,56,13.80
2009,06,02,03,57,13.70
2009,06,02,03,58,13.60
2009,06,02,03,59,13.50
2009,06,02,04,00,13.40
2009,06,02,04,01,13.30
2009,06,02,04,02,13.20
2009,06,02,04,03,13.20
2009,06,02,04,04,13.10
2009,06,02,04,05,13.10
2009,06,02,04,06,13.10
2009,06,02,04,07,13.00
2009,06,02,04,08,13.00
2009,06,02,04,09,13.00
2009,06,02,04,10,13.00
2009,06,02,04,11,13.00
2009,06,02,04,12,13.00
2009,06,02,04,13,13.00
2009,06,02,04,14,13.00
2009,06,02,04,15,13.10
2009,06,02,04,16,13.10
2009,06,02,04,17,13.10
2009,06,02,04,18,13.20
2009,06,02,04,19,13.20
2009,06,02,04,20,13.20
2009,06,02,04,21,13.30
2009,06,02,04,22,13.30
2009,06,02,04,23,13.30
2009,06,02,04,24,13.30
2009,06,02,04,25,13.30
2009,06,02,04,26,13.30
2009,06,02,04,27,13.30
2009,06,02,04,28,13.40
2009,06,02,04,29,13.40
2009,06,02,04,30,13.40
2009,06,02,04,31,13.40
2009,06,02,04,32,13.40
2009,06,02,04,33,13.40
2009,06,02,04,34,13.40
2009,06,02,04,35,13.40
2009,06,02,04,36,13.40
2009,06,02,04,37,13.40
2009,06,02,04,38,13.40
2009,06,02,04,39,13.40
2009,06,02,04,40,13.40
2009,06,02,04,41,13.40
2009,06,02,04,42,13.40
2009,06,02,04,43,13.40
2009,06,02,04,44,13.40
2009,06,02,04,45,13.40
2009,06,02,04,46,13.40
2009,06,02,04,47,13.40
2009,06,02,04,48,13.40
2009,06,02,04,49,13.40
2009,06,02,04,50,13.40
2009,06,02,04,51,13.40
2009,06,02,04,52,13.30
2009,06,02,04,53,13.30
2009,06,02,04,54,13.30
2009,06,02,04,55,13.30
2009,06,02,04,56,13.30
2009,06,02,04,57,13.30
2009,06,02,04,58,13.30
2009,06,02,04,59,13.30
2009,06,02,05,00,13.30
2009,06,02,05,01,13.30
2009,06,02,05,02,13.30
2009,06,02,05,03,13.30
2009,06,02,05,04,13.30
2009,06,02,05,05,13.30
2009,06,02,05,06,13.30
2009,06,02,05,07,13.30
2009,06,02,05,08,13.30
2009,06,02,05,09,13.30
2009,06,02,05,10,13.30
2009,06,02,05,11,13.30
2009,06,02,05,12,13.30
2009,06,02,05,13,13.30
2009,06,02,05,14,13.30
2009,06,02,05,15,13.40
2009,06,02,05,16,13.40
2009,06,02,05,17,13.50
2009,06,02,05,18,13.60
2009,06,02,05,19,13.70
2009,06,02,05,20,13.90
2009,06,02,05,21,14.00
2009,06,02,05,22,14.10
2009,06,02,05,23,14.20
2009,06,02,05,24,14.20
2009,06,02,05,25,14.30
2009,06,02,05,26,14.30
2009,06,02,05,27,14.40
2009,06,02,05,28,14.50
2009,06,02,05,29,14.50
2009,06,02,05,30,14.60
2009,06,02,05,31,14.70
2009,06,02,05,32,14.70
2009,06,02,05,33,14.70
2009,06,02,05,34,14.60
2009,06,02,05,35,14.50
2009,06,02,05,36,14.40
2009,06,02,05,37,14.30
2009,06,02,05,38,14.30
2009,06,02,05,39,14.20
2009,06,02,05,40,14.20
2009,06,02,05,41,14.20
2009,06,02,05,42,14.30
2009,06,02,05,43,14.30
2009,06,02,05,44,14.30
2009,06,02,05,45,14.30
2009,06,02,05,46,14.40
2009,06,02,05,47,14.40
2009,06,02,05,48,14.40
2009,06,02,05,49,14.40
2009,06,02,05,50,14.50
2009,06,02,05,51,14.50
2009,06,02,05,52,14.40
2009,06,02,05,53,14.30
2009,06,02,05,54,14.20
2009,06,02,05,55,14.20
2009,06,02,05,56,14.10
2009,06,02,05,57,14.10
2009,06,02,05,58,14.10
2009,06,02,05,59,14.00
2009,06,02,06,00,14.00
2009,06,02,06,01,14.00
2009,06,02,06,02,14.00
2009,06,02,06,03,14.00
2009,06,02,06,04,14.00
2009,06,02,06,05,14.10
2009,06,02,06,06,14.10
2009,06,02,06,07,14.10
2009,06,02,06,08,14.10
2009,06,02,06,09,14.10
2009,06,02,06,10,14.20
2009,06,02,06,11,14.20
2009,06,02,06,12,14.30
2009,06,02,06,13,14.40
2009,06,02,06,14,14.40
2009,06,02,06,15,14.50
2009,06,02,06,16,14.50
2009,06,02,06,17,14.60
2009,06,02,06,18,14.60
2009,06,02,06,19,14.70
2009,06,02,06,20,14.70
2009,06,02,06,21,14.80
2009,06,02,06,22,14.80
2009,06,02,06,23,15.00
2009,06,02,06,24,15.00
2009,06,02,06,25,15.00
2009,06,02,06,26,15.00
2009,06,02,06,27,15.00
2009,06,02,06,28,15.00
2009,06,02,06,29,15.10
2009,06,02,06,30,15.10
2009,06,02,06,31,15.20
2009,06,02,06,32,15.20
2009,06,02,06,33,15.30
2009,06,02,06,34,15.30
2009,06,02,06,35,15.30
2009,06,02,06,36,15.40
2009,06,02,06,37,15.40
2009,06,02,06,38,15.40
2009,06,02,06,39,15.40
2009,06,02,06,40,15.40
2009,06,02,06,41,15.50
2009,06,02,06,42,15.50
2009,06,02,06,43,15.50
2009,06,02,06,44,15.50
2009,06,02,06,45,15.50
2009,06,02,06,46,15.40
2009,06,02,06,47,15.40
2009,06,02,06,48,15.40
2009,06,02,06,49,15.40
2009,06,02,06,50,15.40
2009,06,02,06,51,15.30
2009,06,02,06,52,15.30
2009,06,02,06,53,15.30
2009,06,02,06,54,15.30
2009,06,02,06,55,15.30
2009,06,02,06,56,15.30
2009,06,02,06,57,15.30
2009,06,02,06,58,15.30
2009,06,02,06,59,15.30
2009,06,02,07,00,15.30
2009,06,02,07,01,15.30
2009,06,02,07,02,15.30
2009,06,02,07,03,15.30
2009,06,02,07,04,15.30
2009,06,02,07,05,15.40
2009,06,02,07,06,15.40
2009,06,02,07,07,15.40
2009,06,02,07,08,15.40
2009,06,02,07,09,15.40
2009,06,02,07,10,15.40
2009,06,02,07,11,15.40
2009,06,02,07,12,15.50
2009,06,02,07,13,15.50
2009,06,02,07,14,15.60
2009,06,02,07,15,15.60
2009,06,02,07,16,15.60
2009,06,02,07,17,15.70
2009,06,02,07,18,15.70
2009,06,02,07,19,15.80
2009,06,02,07,20,15.90
2009,06,02,07,21,15.90
2009,06,02,07,22,16.00
2009,06,02,07,23,16.10
2009,06,02,07,24,16.20
2009,06,02,07,25,16.20
2009,06,02,07,26,16.30
2009,06,02,07,27,16.40
2009,06,02,07,28,16.50
2009,06,02,07,29,16.60
2009,06,02,07,30,16.70
2009,06,02,07,31,16.90
2009,06,02,07,32,17.00
2009,06,02,07,33,17.10
2009,06,02,07,34,17.20
2009,06,02,07,35,17.30
2009,06,02,07,36,17.30
2009,06,02,07,37,17.40
2009,06,02,07,38,17.40
2009,06,02,07,39,17.50
2009,06,02,07,40,17.60
2009,06,02,07,41,17.60
2009,06,02,07,42,17.70
2009,06,02,07,43,17.70
2009,06,02,07,44,17.70
2009,06,02,07,45,17.80
2009,06,02,07,46,17.80
2009,06,02,07,47,17.80
2009,06,02,07,48,17.90
2009,06,02,07,49,17.90
2009,06,02,07,50,17.90
2009,06,02,07,51,17.90
2009,06,02,07,52,18.00
2009,06,02,07,53,18.00
2009,06,02,07,54,18.10
2009,06,02,07,55,18.10
2009,06,02,07,56,18.10
2009,06,02,07,57,18.20
2009,06,02,07,58,18.20
2009,06,02,07,59,18.20
2009,06,02,08,00,18.20
2009,06,02,08,01,18.20
2009,06,02,08,02,18.30
2009,06,02,08,03,18.30
2009,06,02,08,04,18.30
2009,06,02,08,05,18.30
2009,06,02,08,06,18.30
2009,06,02,08,07,18.40
2009,06,02,08,08,18.40
2009,06,02,08,09,18.50
2009,06,02,08,10,18.50
2009,06,02,08,11,18.60
2009,06,02,08,12,18.60
2009,06,02,08,13,18.70
2009,06,02,08,14,18.70
2009,06,02,08,15,18.80
2009,06,02,08,16,18.80
2009,06,02,08,17,18.90
2009,06,02,08,18,18.90
2009,06,02,08,19,18.90
2009,06,02,08,20,19.00
2009,06,02,08,21,19.00
2009,06,02,08,22,19.10
2009,06,02,08,23,19.10
2009,06,02,08,24,19.10
2009,06,02,08,25,19.10
2009,06,02,08,26,19.10
2009,06,02,08,27,19.10
2009,06,02,08,28,19.10
2009,06,02,08,29,19.10
2009,06,02,08,30,19.10
2009,06,02,08,31,19.10
2009,06,02,08,32,19.10
2009,06,02,08,33,19.10
2009,06,02,08,34,19.10
2009,06,02,08,35,19.00
2009,06,02,08,36,19.00
2009,06,02,08,37,19.00
2009,06,02,08,38,19.00
2009,06,02,08,39,19.00
2009,06,02,08,40,19.10
2009,06,02,08,41,19.00
2009,06,02,08,42,19.00
2009,06,02,08,43,19.00
2009,06,02,08,44,19.00
2009,06,02,08,45,18.90
2009,06,02,08,46,18.90
2009,06,02,08,47,18.90
2009,06,02,08,48,19.00
2009,06,02,08,49,19.00
2009,06,02,08,50,19.00
2009,06,02,08,51,19.00
2009,06,02,08,52,19.10
2009,06,02,08,53,19.10
2009,06,02,08,54,19.20
2009,06,02,08,55,19.20
2009,06,02,08,56,19.30
2009,06,02,08,57,19.30
2009,06,02,08,58,19.30
2009,06,02,08,59,19.30
2009,06,02,09,00,19.40
2009,06,02,09,01,19.40
2009,06,02,09,02,19.40
2009,06,02,09,03,19.40
2009,06,02,09,04,19.50
2009,06,02,09,05,19.60
2009,06,02,09,06,19.60
2009,06,02,09,07,19.70
2009,06,02,09,08,19.80
2009,06,02,09,09,19.80
2009,06,02,09,10,19.90
2009,06,02,09,11,20.00
2009,06,02,09,12,20.00
2009,06,02,09,13,20.10
2009,06,02,09,14,20.10
2009,06,02,09,15,20.20
2009,06,02,09,16,20.20
2009,06,02,09,17,20.20
2009,06,02,09,18,20.20
2009,06,02,09,19,20.30
2009,06,02,09,20,20.40
2009,06,02,09,21,20.50
2009,06,02,09,22,20.60
2009,06,02,09,23,20.60
2009,06,02,09,24,20.70
2009,06,02,09,25,20.70
2009,06,02,09,26,20.80
2009,06,02,09,27,20.90
2009,06,02,09,28,20.90
2009,06,02,09,29,21.00
2009,06,02,09,30,21.00
2009,06,02,09,31,21.00
2009,06,02,09,32,21.00
2009,06,02,09,33,20.90
2009,06,02,09,34,20.90
2009,06,02,09,35,21.00
2009,06,02,09,36,21.10
2009,06,02,09,37,21.20
2009,06,02,09,38,21.40
2009,06,02,09,39,21.50
2009,06,02,09,40,21.60
2009,06,02,09,41,21.70
2009,06,02,09,42,21.70
2009,06,02,09,43,21.80
2009,06,02,09,44,21.90
2009,06,02,09,45,22.00
2009,06,02,09,46,22.10
2009,06,02,09,47,22.20
2009,06,02,09,48,22.30
2009,06,02,09,49,22.40
2009,06,02,09,50,22.60
2009,06,02,09,51,22.50
2009,06,02,09,52,22.40
2009,06,02,09,53,22.40
2009,06,02,09,54,22.40
2009,06,02,09,55,22.40
2009,06,02,09,56,22.30
2009,06,02,09,57,22.30
2009,06,02,09,58,22.30
2009,06,02,09,59,22.40
2009,06,02,10,00,22.40
2009,06,02,10,01,22.50
2009,06,02,10,02,22.50
2009,06,02,10,03,22.50
2009,06,02,10,04,22.50
2009,06,02,10,05,22.60
2009,06,02,10,06,22.60
2009,06,02,10,07,22.70
2009,06,02,10,08,22.80
2009,06,02,10,09,22.80
2009,06,02,10,10,22.90
2009,06,02,10,11,22.90
2009,06,02,10,12,22.90
2009,06,02,10,13,22.90
2009,06,02,10,14,23.00
2009,06,02,10,15,23.10
2009,06,02,10,16,23.10
2009,06,02,10,17,23.10
2009,06,02,10,18,23.10
2009,06,02,10,19,23.20
2009,06,02,10,20,23.30
2009,06,02,10,21,23.30
2009,06,02,10,22,23.30
2009,06,02,10,23,23.40
2009,06,02,10,24,23.50
2009,06,02,10,25,23.60
2009,06,02,10,26,23.70
2009,06,02,10,27,23.80
2009,06,02,10,28,23.90
2009,06,02,10,29,24.10
2009,06,02,10,30,24.10
2009,06,02,10,31,24.20
2009,06,02,10,32,24.30
2009,06,02,10,33,24.30
2009,06,02,10,34,24.30
2009,06,02,10,35,24.30
2009,06,02,10,36,24.20
2009,06,02,10,37,24.00
2009,06,02,10,38,23.90
2009,06,02,10,39,23.80
2009,06,02,10,40,23.70
2009,06,02,10,41,23.80
2009,06,02,10,42,23.80
2009,06,02,10,43,23.80
2009,06,02,10,44,23.80
2009,06,02,10,45,23.90
2009,06,02,10,46,23.90
2009,06,02,10,47,23.80
2009,06,02,10,48,23.80
2009,06,02,10,49,23.90
2009,06,02,10,50,23.90
2009,06,02,10,51,24.00
2009,06,02,10,52,24.00
2009,06,02,10,53,24.00
2009,06,02,10,54,24.00
2009,06,02,10,55,24.10
2009,06,02,10,56,24.10
2009,06,02,10,57,24.00
2009,06,02,10,58,23.80
2009,06,02,10,59,23.70
2009,06,02,11,00,23.70
2009,06,02,11,01,23.80
2009,06,02,11,02,23.90
2009,06,02,11,03,23.90
2009,06,02,11,04,24.00
2009,06,02,11,05,24.10
2009,06,02,11,06,24.20
2009,06,02,11,07,24.20
2009,06,02,11,08,24.30
2009,06,02,11,09,24.30
2009,06,02,11,10,24.30
2009,06,02,11,11,24.40
2009,06,02,11,12,24.40
2009,06,02,11,13,24.50
2009,06,02,11,14,24.50
2009,06,02,11,15,24.50
2009,06,02,11,16,24.40
2009,06,02,11,17,24.40
2009,06,02,11,18,24.40
2009,06,02,11,19,24.40
2009,06,02,11,20,24.40
2009,06,02,11,21,24.40
2009,06,02,11,22,24.50
2009,06,02,11,23,24.50
2009,06,02,11,24,24.40
2009,06,02,11,25,24.20
2009,06,02,11,26,24.10
2009,06,02,11,27,24.00
2009,06,02,11,28,24.00
2009,06,02,11,29,24.00
2009,06,02,11,30,24.00
2009,06,02,11,31,24.10
2009,06,02,11,32,24.20
2009,06,02,11,33,24.40
2009,06,02,11,34,24.50
2009,06,02,11,35,24.60
2009,06,02,11,36,24.70
2009,06,02,11,37,24.80
2009,06,02,11,38,24.80
2009,06,02,11,39,24.90
2009,06,02,11,40,25.00
2009,06,02,11,41,25.10
2009,06,02,11,42,25.10
2009,06,02,11,43,25.20
2009,06,02,11,44,25.20
2009,06,02,11,45,25.30
2009,06,02,11,46,25.30
2009,06,02,11,47,25.30
2009,06,02,11,48,25.20
2009,06,02,11,49,25.10
2009,06,02,11,50,25.00
2009,06,02,11,51,24.80
2009,06,02,11,52,24.70
2009,06,02,11,53,24.70
2009,06,02,11,54,24.70
2009,06,02,11,55,24.70
2009,06,02,11,56,24.70
2009,06,02,11,57,24.80
2009,06,02,11,58,24.80
2009,06,02,11,59,24.90
2009,06,02,12,00,24.90
2009,06,02,12,01,25.10
2009,06,02,12,02,25.20
2009,06,02,12,03,25.20
2009,06,02,12,04,25.40
2009,06,02,12,05,25.50
2009,06,02,12,06,25.60
2009,06,02,12,07,25.80
2009,06,02,12,08,25.90
2009,06,02,12,09,25.90
2009,06,02,12,10,25.90
2009,06,02,12,11,25.90
2009,06,02,12,12,25.90
2009,06,02,12,13,25.90
2009,06,02,12,14,25.90
2009,06,02,12,15,25.90
2009,06,02,12,16,25.90
2009,06,02,12,17,26.00
2009,06,02,12,18,26.10
2009,06,02,12,19,26.10
2009,06,02,12,20,26.20
2009,06,02,12,21,26.20
2009,06,02,12,22,26.20
2009,06,02,12,23,26.20
2009,06,02,12,24,26.20
2009,06,02,12,25,26.20
2009,06,02,12,26,26.20
2009,06,02,12,27,26.20
2009,06,02,12,28,26.20
2009,06,02,12,29,26.30
2009,06,02,12,30,26.20
2009,06,02,12,31,26.20
2009,06,02,12,32,26.30
2009,06,02,12,33,26.40
2009,06,02,12,34,26.50
2009,06,02,12,35,26.50
2009,06,02,12,36,26.60
2009,06,02,12,37,26.60
2009,06,02,12,38,26.50
2009,06,02,12,39,26.40
2009,06,02,12,40,26.30
2009,06,02,12,41,26.40
2009,06,02,12,42,26.40
2009,06,02,12,43,26.40
2009,06,02,12,44,26.50
2009,06,02,12,45,26.60
2009,06,02,12,46,26.80
2009,06,02,12,47,26.90
2009,06,02,12,48,26.90
2009,06,02,12,49,26.90
2009,06,02,12,50,27.00
2009,06,02,12,51,27.10
2009,06,02,12,52,27.30
2009,06,02,12,53,27.40
2009,06,02,12,54,27.50
2009,06,02,12,55,27.60
2009,06,02,12,56,27.80
2009,06,02,12,57,27.90
2009,06,02,12,58,27.90
2009,06,02,12,59,27.90
2009,06,02,13,00,27.80
2009,06,02,13,01,27.80
2009,06,02,13,02,27.70
2009,06,02,13,03,27.70
2009,06,02,13,04,27.50
2009,06,02,13,05,27.40
2009,06,02,13,06,27.30
2009,06,02,13,07,27.20
2009,06,02,13,08,27.30
2009,06,02,13,09,27.40
2009,06,02,13,10,27.50
2009,06,02,13,11,27.70
2009,06,02,13,12,27.80
2009,06,02,13,13,27.90
2009,06,02,13,14,27.90
2009,06,02,13,15,28.00
2009,06,02,13,16,28.00
2009,06,02,13,17,28.00
2009,06,02,13,18,28.00
2009,06,02,13,19,27.80
2009,06,02,13,20,27.30
2009,06,02,13,21,26.90
2009,06,02,13,22,26.60
2009,06,02,13,23,26.40
2009,06,02,13,24,26.30
2009,06,02,13,25,26.30
2009,06,02,13,26,26.30
2009,06,02,13,27,26.30
2009,06,02,13,28,26.40
2009,06,02,13,29,26.60
2009,06,02,13,30,26.80
2009,06,02,13,31,27.10
2009,06,02,13,32,27.20
2009,06,02,13,33,27.40
2009,06,02,13,34,27.60
2009,06,02,13,35,27.70
2009,06,02,13,36,27.90
2009,06,02,13,37,27.90
2009,06,02,13,38,27.70
2009,06,02,13,39,27.50
2009,06,02,13,40,26.80
2009,06,02,13,41,26.10
2009,06,02,13,42,25.20
2009,06,02,13,43,24.80
2009,06,02,13,44,24.50
2009,06,02,13,45,24.40
2009,06,02,13,46,24.20
2009,06,02,13,47,23.90
2009,06,02,13,48,23.70
2009,06,02,13,49,23.50
2009,06,02,13,50,23.30
2009,06,02,13,51,23.30
2009,06,02,13,52,23.30
2009,06,02,13,53,23.30
2009,06,02,13,54,23.40
2009,06,02,13,55,23.60
2009,06,02,13,56,23.60
2009,06,02,13,57,23.50
2009,06,02,13,58,23.50
2009,06,02,13,59,23.50
2009,06,02,14,00,23.60
2009,06,02,14,01,23.70
2009,06,02,14,02,23.80
2009,06,02,14,03,24.10
2009,06,02,14,04,24.20
2009,06,02,14,05,24.20
2009,06,02,14,06,24.40
2009,06,02,14,07,24.60
2009,06,02,14,08,24.70
2009,06,02,14,09,24.70
2009,06,02,14,10,24.70
2009,06,02,14,11,24.50
2009,06,02,14,12,24.30
2009,06,02,14,13,24.10
2009,06,02,14,14,24.00
2009,06,02,14,15,23.80
2009,06,02,14,16,23.80
2009,06,02,14,17,23.80
2009,06,02,14,18,23.80
2009,06,02,14,19,24.00
2009,06,02,14,20,24.10
2009,06,02,14,21,24.30
2009,06,02,14,22,24.40
2009,06,02,14,23,24.40
2009,06,02,14,24,24.40
2009,06,02,14,25,24.40
2009,06,02,14,26,24.50
2009,06,02,14,27,24.70
2009,06,02,14,28,24.80
2009,06,02,14,29,25.00
2009,06,02,14,30,25.20
2009,06,02,14,31,25.40
2009,06,02,14,32,25.40
2009,06,02,14,33,25.60
2009,06,02,14,34,25.70
2009,06,02,14,35,25.80
2009,06,02,14,36,25.90
2009,06,02,14,37,25.90
2009,06,02,14,38,25.90
2009,06,02,14,39,26.00
2009,06,02,14,40,26.10
2009,06,02,14,41,26.30
2009,06,02,14,42,26.40
2009,06,02,14,43,26.50
2009,06,02,14,44,26.50
2009,06,02,14,45,26.40
2009,06,02,14,46,26.30
2009,06,02,14,47,26.20
2009,06,02,14,48,26.00
2009,06,02,14,49,25.90
2009,06,02,14,50,25.90
2009,06,02,14,51,26.00
2009,06,02,14,52,26.00
2009,06,02,14,53,26.10
2009,06,02,14,54,26.10
2009,06,02,14,55,26.10
2009,06,02,14,56,26.00
2009,06,02,14,57,26.00
2009,06,02,14,58,25.90
2009,06,02,14,59,26.00
2009,06,02,15,00,26.10
2009,06,02,15,01,26.10
2009,06,02,15,02,26.10
2009,06,02,15,03,26.20
2009,06,02,15,04,26.30
2009,06,02,15,05,26.30
2009,06,02,15,06,26.40
2009,06,02,15,07,26.60
2009,06,02,15,08,26.70
2009,06,02,15,09,26.80
2009,06,02,15,10,26.90
2009,06,02,15,11,27.10
2009,06,02,15,12,27.30
2009,06,02,15,13,27.40
2009,06,02,15,14,27.50
2009,06,02,15,15,27.70
2009,06,02,15,16,27.80
2009,06,02,15,17,27.90
2009,06,02,15,18,28.00
2009,06,02,15,19,28.10
2009,06,02,15,20,28.20
2009,06,02,15,21,28.30
2009,06,02,15,22,28.30
2009,06,02,15,23,28.40
2009,06,02,15,24,28.40
2009,06,02,15,25,28.40
2009,06,02,15,26,28.40
2009,06,02,15,27,28.30
2009,06,02,15,28,28.40
2009,06,02,15,29,28.40
2009,06,02,15,30,28.40
2009,06,02,15,31,28.50
2009,06,02,15,32,28.40
2009,06,02,15,33,28.40
2009,06,02,15,34,28.40
2009,06,02,15,35,28.50
2009,06,02,15,36,28.70
2009,06,02,15,37,28.70
2009,06,02,15,38,28.60
2009,06,02,15,39,28.50
2009,06,02,15,40,28.30
2009,06,02,15,41,28.30
2009,06,02,15,42,28.10
2009,06,02,15,43,28.10
2009,06,02,15,44,28.20
2009,06,02,15,45,28.30
2009,06,02,15,46,28.50
2009,06,02,15,47,28.50
2009,06,02,15,48,28.40
2009,06,02,15,49,28.20
2009,06,02,15,50,28.20
2009,06,02,15,51,28.30
2009,06,02,15,52,28.30
2009,06,02,15,53,28.20
2009,06,02,15,54,28.30
2009,06,02,15,55,28.30
2009,06,02,15,56,28.40
2009,06,02,15,57,28.50
2009,06,02,15,58,28.50
2009,06,02,15,59,28.50
2009,06,02,16,00,28.50
2009,06,02,16,01,28.60
2009,06,02,16,02,28.70
2009,06,02,16,03,28.70
2009,06,02,16,04,28.80
2009,06,02,16,05,28.80
2009,06,02,16,06,28.80
2009,06,02,16,07,28.80
2009,06,02,16,08,28.70
2009,06,02,16,09,28.70
2009,06,02,16,10,28.70
2009,06,02,16,11,28.70
2009,06,02,16,12,28.80
2009,06,02,16,13,28.80
2009,06,02,16,14,28.90
2009,06,02,16,15,29.00
2009,06,02,16,16,29.10
2009,06,02,16,17,29.00
2009,06,02,16,18,28.90
2009,06,02,16,19,28.80
2009,06,02,16,20,28.60
2009,06,02,16,21,28.50
2009,06,02,16,22,28.40
2009,06,02,16,23,28.30
2009,06,02,16,24,28.30
2009,06,02,16,25,28.30
2009,06,02,16,26,28.40
2009,06,02,16,27,28.40
2009,06,02,16,28,28.40
2009,06,02,16,29,28.40
2009,06,02,16,30,28.50
2009,06,02,16,31,28.50
2009,06,02,16,32,28.40
2009,06,02,16,33,28.40
2009,06,02,16,34,28.30
2009,06,02,16,35,28.30
2009,06,02,16,36,28.30
2009,06,02,16,37,28.20
2009,06,02,16,38,28.10
2009,06,02,16,39,28.00
2009,06,02,16,40,28.00
2009,06,02,16,41,28.10
2009,06,02,16,42,28.10
2009,06,02,16,43,28.00
2009,06,02,16,44,28.10
2009,06,02,16,45,28.10
2009,06,02,16,46,28.10
2009,06,02,16,47,28.20
2009,06,02,16,48,28.20
2009,06,02,16,49,28.20
2009,06,02,16,50,28.30
2009,06,02,16,51,28.30
2009,06,02,16,52,28.30
2009,06,02,16,53,28.30
2009,06,02,16,54,28.30
2009,06,02,16,55,28.40
2009,06,02,16,56,28.40
2009,06,02,16,57,28.40
2009,06,02,16,58,28.30
2009,06,02,16,59,28.20
2009,06,02,17,00,28.00
2009,06,02,17,01,27.90
2009,06,02,17,02,27.80
2009,06,02,17,03,27.70
2009,06,02,17,04,27.60
2009,06,02,17,05,27.50
2009,06,02,17,06,27.40
2009,06,02,17,07,27.30
2009,06,02,17,08,27.30
2009,06,02,17,09,27.10
2009,06,02,17,10,26.60
2009,06,02,17,11,26.20
2009,06,02,17,12,25.70
2009,06,02,17,13,25.30
2009,06,02,17,14,24.80
2009,06,02,17,15,24.40
2009,06,02,17,16,24.10
2009,06,02,17,17,23.70
2009,06,02,17,18,23.30
2009,06,02,17,19,23.00